Information on these data can be found in provided Readme document
Contact Info: Zachary Fasnacht (zachary.fasnacht@ssaihq.com); Nickolay Krotkov (nickolay.a.krotkov@nasa.gov); Lok Lamsal (lok.lamsal@nasa.gov)

FillValue: -999.
ScaleFactor: 1e15
Units: molecules/cm^2

Date(yyyy-mm-dd),City,Country,LonCenter,LatCenter,BoundingCoordinates,Median,Q1,Q3,Mean,Baseline_Median,Baseline_Q1,Baseline_Q3,Baseline_Mean,NumGoodSamples,NumTotalSamples
2015-01-01,Auckland,NewZealand,174.7501,-36.8667,[174.2501 -37.3667 175.2501 -36.3667],0.656,0.364,1.066,0.729,0.622,0.299,1.0,0.649,239.0,660.0
2015-01-02,Auckland,NewZealand,174.7501,-36.8667,[174.2501 -37.3667 175.2501 -36.3667],0.681,0.359,1.065,0.72,0.633,0.304,1.008,0.657,248.0,662.0
2015-01-03,Auckland,NewZealand,174.7501,-36.8667,[174.2501 -37.3667 175.2501 -36.3667],0.681,0.364,1.065,0.732,0.651,0.306,1.02,0.677,259.0,662.0
2015-01-04,Auckland,NewZealand,174.7501,-36.8667,[174.2501 -37.3667 175.2501 -36.3667],0.703,0.329,1.065,0.731,0.617,0.287,0.983,0.661,251.0,653.0
2015-01-05,Auckland,NewZealand,174.7501,-36.8667,[174.2501 -37.3667 175.2501 -36.3667],0.685,0.323,1.053,0.717,0.626,0.296,0.989,0.663,274.0,652.0
2015-01-06,Auckland,NewZealand,174.7501,-36.8667,[174.2501 -37.3667 175.2501 -36.3667],0.681,0.304,1.045,0.705,0.626,0.292,0.987,0.66,241.0,632.0
2015-01-07,Auckland,NewZealand,174.7501,-36.8667,[174.2501 -37.3667 175.2501 -36.3667],0.716,0.325,1.103,0.754,0.656,0.292,1.026,0.687,276.0,588.0
2015-01-08,Auckland,NewZealand,174.7501,-36.8667,[174.2501 -37.3667 175.2501 -36.3667],0.716,0.325,1.103,0.754,0.645,0.298,1.019,0.678,276.0,585.0
2015-01-09,Auckland,NewZealand,174.7501,-36.8667,[174.2501 -37.3667 175.2501 -36.3667],0.692,0.304,1.045,0.719,0.649,0.277,1.023,0.675,281.0,593.0
2015-01-10,Auckland,NewZealand,174.7501,-36.8667,[174.2501 -37.3667 175.2501 -36.3667],0.692,0.304,1.043,0.714,0.648,0.265,1.022,0.67,260.0,564.0
2015-01-11,Auckland,NewZealand,174.7501,-36.8667,[174.2501 -37.3667 175.2501 -36.3667],0.685,0.29,1.043,0.703,0.648,0.27,1.022,0.668,276.0,563.0
2015-01-12,Auckland,NewZealand,174.7501,-36.8667,[174.2501 -37.3667 175.2501 -36.3667],0.692,0.304,1.043,0.714,0.654,0.271,1.033,0.674,293.0,555.0
2015-01-13,Auckland,NewZealand,174.7501,-36.8667,[174.2501 -37.3667 175.2501 -36.3667],0.673,0.283,0.981,0.685,0.621,0.23,0.999,0.639,267.0,548.0
2015-01-14,Auckland,NewZealand,174.7501,-36.8667,[174.2501 -37.3667 175.2501 -36.3667],0.639,0.29,0.981,0.679,0.617,0.25,0.998,0.648,296.0,548.0
2015-01-15,Auckland,NewZealand,174.7501,-36.8667,[174.2501 -37.3667 175.2501 -36.3667],0.667,0.283,1.044,0.7,0.628,0.248,1.03,0.663,263.0,549.0
2015-01-16,Auckland,NewZealand,174.7501,-36.8667,[174.2501 -37.3667 175.2501 -36.3667],0.625,0.273,1.03,0.675,0.617,0.245,1.036,0.66,281.0,549.0
2015-01-17,Auckland,NewZealand,174.7501,-36.8667,[174.2501 -37.3667 175.2501 -36.3667],0.639,0.284,1.073,0.69,0.631,0.264,1.074,0.682,289.0,556.0
2015-01-18,Auckland,NewZealand,174.7501,-36.8667,[174.2501 -37.3667 175.2501 -36.3667],0.673,0.306,1.042,0.688,0.638,0.268,1.064,0.679,284.0,560.0
2015-01-19,Auckland,NewZealand,174.7501,-36.8667,[174.2501 -37.3667 175.2501 -36.3667],0.639,0.288,1.042,0.664,0.634,0.274,1.068,0.674,292.0,561.0
2015-01-20,Auckland,NewZealand,174.7501,-36.8667,[174.2501 -37.3667 175.2501 -36.3667],0.639,0.29,1.043,0.672,0.622,0.259,1.056,0.66,269.0,553.0
2015-01-21,Auckland,NewZealand,174.7501,-36.8667,[174.2501 -37.3667 175.2501 -36.3667],0.582,0.29,1.022,0.651,0.601,0.258,1.044,0.648,287.0,551.0
2015-01-22,Auckland,NewZealand,174.7501,-36.8667,[174.2501 -37.3667 175.2501 -36.3667],0.525,0.272,0.988,0.59,0.582,0.259,1.02,0.635,252.0,551.0
2015-01-23,Auckland,NewZealand,174.7501,-36.8667,[174.2501 -37.3667 175.2501 -36.3667],0.538,0.271,1.001,0.609,0.632,0.271,1.052,0.666,270.0,549.0
2015-01-24,Auckland,NewZealand,174.7501,-36.8667,[174.2501 -37.3667 175.2501 -36.3667],0.563,0.288,1.006,0.63,0.601,0.271,1.054,0.662,234.0,548.0
2015-01-25,Auckland,NewZealand,174.7501,-36.8667,[174.2501 -37.3667 175.2501 -36.3667],0.563,0.288,1.006,0.63,0.588,0.266,1.037,0.651,234.0,593.0
2015-01-26,Auckland,NewZealand,174.7501,-36.8667,[174.2501 -37.3667 175.2501 -36.3667],0.571,0.295,1.022,0.675,0.611,0.265,1.048,0.668,232.0,601.0
2015-01-27,Auckland,NewZealand,174.7501,-36.8667,[174.2501 -37.3667 175.2501 -36.3667],0.571,0.295,1.042,0.701,0.615,0.265,1.084,0.677,221.0,601.0
2015-01-28,Auckland,NewZealand,174.7501,-36.8667,[174.2501 -37.3667 175.2501 -36.3667],0.571,0.295,1.022,0.685,0.643,0.304,1.1,0.699,210.0,591.0
2015-01-29,Auckland,NewZealand,174.7501,-36.8667,[174.2501 -37.3667 175.2501 -36.3667],0.601,0.288,1.022,0.682,0.675,0.301,1.112,0.705,190.0,583.0
2015-01-30,Auckland,NewZealand,174.7501,-36.8667,[174.2501 -37.3667 175.2501 -36.3667],0.571,0.271,1.022,0.656,0.674,0.305,1.121,0.704,195.0,587.0
2015-01-31,Auckland,NewZealand,174.7501,-36.8667,[174.2501 -37.3667 175.2501 -36.3667],0.571,0.271,1.042,0.688,0.681,0.308,1.127,0.718,159.0,591.0
2015-02-01,Auckland,NewZealand,174.7501,-36.8667,[174.2501 -37.3667 175.2501 -36.3667],0.549,0.254,1.006,0.664,0.654,0.292,1.091,0.701,138.0,592.0
2015-02-02,Auckland,NewZealand,174.7501,-36.8667,[174.2501 -37.3667 175.2501 -36.3667],0.384,0.08,0.929,0.615,0.628,0.27,1.075,0.691,117.0,599.0
2015-02-03,Auckland,NewZealand,174.7501,-36.8667,[174.2501 -37.3667 175.2501 -36.3667],0.514,0.166,1.112,0.712,0.669,0.272,1.115,0.719,99.0,603.0
2015-02-04,Auckland,NewZealand,174.7501,-36.8667,[174.2501 -37.3667 175.2501 -36.3667],0.514,0.24,1.002,0.704,0.659,0.286,1.078,0.71,110.0,602.0
2015-02-05,Auckland,NewZealand,174.7501,-36.8667,[174.2501 -37.3667 175.2501 -36.3667],0.652,0.158,1.263,0.796,0.677,0.286,1.127,0.733,92.0,594.0
2015-02-06,Auckland,NewZealand,174.7501,-36.8667,[174.2501 -37.3667 175.2501 -36.3667],0.652,0.313,1.193,0.782,0.684,0.306,1.149,0.747,125.0,594.0
2015-02-07,Auckland,NewZealand,174.7501,-36.8667,[174.2501 -37.3667 175.2501 -36.3667],0.63,0.332,1.19,0.782,0.669,0.296,1.145,0.726,107.0,594.0
2015-02-08,Auckland,NewZealand,174.7501,-36.8667,[174.2501 -37.3667 175.2501 -36.3667],0.63,0.333,1.203,0.771,0.696,0.294,1.157,0.738,123.0,593.0
2015-02-09,Auckland,NewZealand,174.7501,-36.8667,[174.2501 -37.3667 175.2501 -36.3667],0.63,0.333,1.203,0.771,0.71,0.32,1.172,0.761,123.0,593.0
2015-02-10,Auckland,NewZealand,174.7501,-36.8667,[174.2501 -37.3667 175.2501 -36.3667],0.63,0.336,1.203,0.752,0.712,0.352,1.148,0.763,133.0,601.0
2015-02-11,Auckland,NewZealand,174.7501,-36.8667,[174.2501 -37.3667 175.2501 -36.3667],0.616,0.336,1.19,0.701,0.72,0.385,1.146,0.766,120.0,572.0
2015-02-12,Auckland,NewZealand,174.7501,-36.8667,[174.2501 -37.3667 175.2501 -36.3667],0.63,0.336,1.19,0.707,0.696,0.337,1.125,0.727,145.0,572.0
2015-02-13,Auckland,NewZealand,174.7501,-36.8667,[174.2501 -37.3667 175.2501 -36.3667],0.664,0.336,1.203,0.736,0.685,0.323,1.123,0.73,141.0,565.0
2015-02-14,Auckland,NewZealand,174.7501,-36.8667,[174.2501 -37.3667 175.2501 -36.3667],0.692,0.383,1.203,0.776,0.663,0.326,1.082,0.718,136.0,554.0
2015-02-15,Auckland,NewZealand,174.7501,-36.8667,[174.2501 -37.3667 175.2501 -36.3667],0.699,0.359,1.089,0.742,0.682,0.353,1.067,0.727,157.0,550.0
2015-02-16,Auckland,NewZealand,174.7501,-36.8667,[174.2501 -37.3667 175.2501 -36.3667],0.703,0.383,1.107,0.757,0.683,0.344,1.076,0.72,152.0,550.0
2015-02-17,Auckland,NewZealand,174.7501,-36.8667,[174.2501 -37.3667 175.2501 -36.3667],0.711,0.383,1.101,0.759,0.689,0.348,1.086,0.728,154.0,550.0
2015-02-18,Auckland,NewZealand,174.7501,-36.8667,[174.2501 -37.3667 175.2501 -36.3667],0.699,0.347,1.089,0.747,0.707,0.331,1.102,0.737,172.0,557.0
2015-02-19,Auckland,NewZealand,174.7501,-36.8667,[174.2501 -37.3667 175.2501 -36.3667],0.673,0.383,1.089,0.75,0.724,0.375,1.139,0.762,183.0,560.0
2015-02-20,Auckland,NewZealand,174.7501,-36.8667,[174.2501 -37.3667 175.2501 -36.3667],0.668,0.35,1.089,0.746,0.73,0.369,1.146,0.764,208.0,557.0
2015-02-21,Auckland,NewZealand,174.7501,-36.8667,[174.2501 -37.3667 175.2501 -36.3667],0.703,0.318,1.203,0.778,0.712,0.341,1.141,0.759,193.0,549.0
2015-02-22,Auckland,NewZealand,174.7501,-36.8667,[174.2501 -37.3667 175.2501 -36.3667],0.81,0.35,1.242,0.859,0.743,0.362,1.155,0.787,230.0,548.0
2015-02-23,Auckland,NewZealand,174.7501,-36.8667,[174.2501 -37.3667 175.2501 -36.3667],0.81,0.345,1.237,0.869,0.744,0.346,1.158,0.781,214.0,547.0
2015-02-24,Auckland,NewZealand,174.7501,-36.8667,[174.2501 -37.3667 175.2501 -36.3667],0.81,0.345,1.237,0.869,0.74,0.348,1.176,0.782,214.0,545.0
2015-02-25,Auckland,NewZealand,174.7501,-36.8667,[174.2501 -37.3667 175.2501 -36.3667],0.852,0.322,1.242,0.88,0.744,0.325,1.165,0.772,181.0,546.0
2015-02-26,Auckland,NewZealand,174.7501,-36.8667,[174.2501 -37.3667 175.2501 -36.3667],0.606,0.211,1.088,0.735,0.737,0.303,1.147,0.764,216.0,591.0
2015-02-27,Auckland,NewZealand,174.7501,-36.8667,[174.2501 -37.3667 175.2501 -36.3667],0.587,0.191,1.088,0.734,0.779,0.332,1.212,0.81,194.0,599.0
2015-02-28,Auckland,NewZealand,174.7501,-36.8667,[174.2501 -37.3667 175.2501 -36.3667],0.587,0.211,1.073,0.725,0.759,0.312,1.217,0.799,192.0,597.0
2015-03-01,Auckland,NewZealand,174.7501,-36.8667,[174.2501 -37.3667 175.2501 -36.3667],0.587,0.188,1.088,0.716,0.775,0.304,1.223,0.807,209.0,589.0
2015-03-02,Auckland,NewZealand,174.7501,-36.8667,[174.2501 -37.3667 175.2501 -36.3667],0.584,0.186,1.093,0.736,0.752,0.29,1.191,0.798,189.0,585.0
2015-03-03,Auckland,NewZealand,174.7501,-36.8667,[174.2501 -37.3667 175.2501 -36.3667],0.606,0.233,1.092,0.71,0.758,0.297,1.209,0.802,227.0,587.0
2015-03-04,Auckland,NewZealand,174.7501,-36.8667,[174.2501 -37.3667 175.2501 -36.3667],0.603,0.233,1.092,0.708,0.756,0.295,1.213,0.806,225.0,587.0
2015-03-05,Auckland,NewZealand,174.7501,-36.8667,[174.2501 -37.3667 175.2501 -36.3667],0.587,0.25,1.073,0.694,0.75,0.28,1.202,0.785,211.0,587.0
2015-03-06,Auckland,NewZealand,174.7501,-36.8667,[174.2501 -37.3667 175.2501 -36.3667],0.587,0.233,1.092,0.737,0.758,0.292,1.202,0.802,215.0,595.0
2015-03-07,Auckland,NewZealand,174.7501,-36.8667,[174.2501 -37.3667 175.2501 -36.3667],0.619,0.25,1.118,0.742,0.754,0.291,1.218,0.805,212.0,600.0
2015-03-08,Auckland,NewZealand,174.7501,-36.8667,[174.2501 -37.3667 175.2501 -36.3667],0.607,0.25,1.091,0.712,0.768,0.288,1.254,0.799,194.0,597.0
2015-03-09,Auckland,NewZealand,174.7501,-36.8667,[174.2501 -37.3667 175.2501 -36.3667],0.585,0.233,1.084,0.671,0.764,0.297,1.251,0.787,175.0,589.0
2015-03-10,Auckland,NewZealand,174.7501,-36.8667,[174.2501 -37.3667 175.2501 -36.3667],0.587,0.234,1.091,0.691,0.774,0.314,1.253,0.8,182.0,589.0
2015-03-11,Auckland,NewZealand,174.7501,-36.8667,[174.2501 -37.3667 175.2501 -36.3667],0.587,0.234,1.091,0.691,0.747,0.301,1.231,0.788,182.0,588.0
2015-03-12,Auckland,NewZealand,174.7501,-36.8667,[174.2501 -37.3667 175.2501 -36.3667],0.584,0.233,1.072,0.671,0.77,0.294,1.236,0.785,190.0,587.0
2015-03-13,Auckland,NewZealand,174.7501,-36.8667,[174.2501 -37.3667 175.2501 -36.3667],0.663,0.327,1.175,0.811,0.741,0.299,1.227,0.787,155.0,587.0
2015-03-14,Auckland,NewZealand,174.7501,-36.8667,[174.2501 -37.3667 175.2501 -36.3667],0.663,0.338,1.162,0.796,0.707,0.285,1.226,0.755,172.0,594.0
2015-03-15,Auckland,NewZealand,174.7501,-36.8667,[174.2501 -37.3667 175.2501 -36.3667],0.663,0.338,1.162,0.8,0.721,0.29,1.241,0.765,169.0,566.0
2015-03-16,Auckland,NewZealand,174.7501,-36.8667,[174.2501 -37.3667 175.2501 -36.3667],0.681,0.349,1.14,0.82,0.729,0.297,1.235,0.772,156.0,567.0
2015-03-17,Auckland,NewZealand,174.7501,-36.8667,[174.2501 -37.3667 175.2501 -36.3667],0.697,0.338,1.149,0.8,0.729,0.294,1.243,0.759,172.0,557.0
2015-03-18,Auckland,NewZealand,174.7501,-36.8667,[174.2501 -37.3667 175.2501 -36.3667],0.791,0.359,1.223,0.875,0.739,0.306,1.214,0.761,143.0,549.0
2015-03-19,Auckland,NewZealand,174.7501,-36.8667,[174.2501 -37.3667 175.2501 -36.3667],0.791,0.359,1.223,0.875,0.747,0.308,1.227,0.765,143.0,548.0
2015-03-20,Auckland,NewZealand,174.7501,-36.8667,[174.2501 -37.3667 175.2501 -36.3667],0.797,0.382,1.374,0.908,0.774,0.354,1.272,0.801,131.0,548.0
2015-03-21,Auckland,NewZealand,174.7501,-36.8667,[174.2501 -37.3667 175.2501 -36.3667],0.663,0.328,1.186,0.78,0.755,0.317,1.27,0.792,120.0,547.0
2015-03-22,Auckland,NewZealand,174.7501,-36.8667,[174.2501 -37.3667 175.2501 -36.3667],0.629,0.302,1.172,0.754,0.768,0.344,1.258,0.794,123.0,552.0
2015-03-23,Auckland,NewZealand,174.7501,-36.8667,[174.2501 -37.3667 175.2501 -36.3667],0.505,0.221,1.14,0.679,0.769,0.338,1.274,0.793,141.0,554.0
2015-03-24,Auckland,NewZealand,174.7501,-36.8667,[174.2501 -37.3667 175.2501 -36.3667],0.484,0.184,0.985,0.584,0.797,0.376,1.233,0.799,149.0,550.0
2015-03-25,Auckland,NewZealand,174.7501,-36.8667,[174.2501 -37.3667 175.2501 -36.3667],0.484,0.159,1.066,0.628,0.806,0.368,1.256,0.793,160.0,541.0
2015-03-26,Auckland,NewZealand,174.7501,-36.8667,[174.2501 -37.3667 175.2501 -36.3667],0.646,0.245,1.223,0.789,0.827,0.389,1.288,0.831,189.0,541.0
2015-03-27,Auckland,NewZealand,174.7501,-36.8667,[174.2501 -37.3667 175.2501 -36.3667],0.731,0.245,1.292,0.816,0.881,0.412,1.34,0.885,181.0,538.0
2015-03-28,Auckland,NewZealand,174.7501,-36.8667,[174.2501 -37.3667 175.2501 -36.3667],0.743,0.284,1.227,0.819,0.884,0.431,1.363,0.922,198.0,537.0
2015-03-29,Auckland,NewZealand,174.7501,-36.8667,[174.2501 -37.3667 175.2501 -36.3667],0.743,0.258,1.329,0.836,0.862,0.418,1.364,0.923,178.0,539.0
2015-03-30,Auckland,NewZealand,174.7501,-36.8667,[174.2501 -37.3667 175.2501 -36.3667],0.743,0.302,1.326,0.841,0.867,0.431,1.406,0.944,217.0,582.0
2015-03-31,Auckland,NewZealand,174.7501,-36.8667,[174.2501 -37.3667 175.2501 -36.3667],0.762,0.302,1.333,0.861,0.906,0.422,1.43,0.966,232.0,590.0
2015-04-01,Auckland,NewZealand,174.7501,-36.8667,[174.2501 -37.3667 175.2501 -36.3667],0.762,0.32,1.333,0.881,0.88,0.419,1.421,0.963,215.0,591.0
2015-04-02,Auckland,NewZealand,174.7501,-36.8667,[174.2501 -37.3667 175.2501 -36.3667],0.744,0.32,1.333,0.877,0.895,0.393,1.456,0.972,206.0,583.0
2015-04-03,Auckland,NewZealand,174.7501,-36.8667,[174.2501 -37.3667 175.2501 -36.3667],0.744,0.32,1.333,0.877,0.919,0.377,1.509,0.987,206.0,578.0
2015-04-04,Auckland,NewZealand,174.7501,-36.8667,[174.2501 -37.3667 175.2501 -36.3667],0.729,0.312,1.275,0.857,0.864,0.316,1.466,0.945,245.0,578.0
2015-04-05,Auckland,NewZealand,174.7501,-36.8667,[174.2501 -37.3667 175.2501 -36.3667],0.775,0.354,1.326,0.889,0.854,0.324,1.457,0.941,230.0,579.0
2015-04-06,Auckland,NewZealand,174.7501,-36.8667,[174.2501 -37.3667 175.2501 -36.3667],0.791,0.354,1.326,0.91,0.847,0.31,1.438,0.944,205.0,579.0
2015-04-07,Auckland,NewZealand,174.7501,-36.8667,[174.2501 -37.3667 175.2501 -36.3667],0.885,0.456,1.371,0.999,0.894,0.362,1.458,0.976,210.0,588.0
2015-04-08,Auckland,NewZealand,174.7501,-36.8667,[174.2501 -37.3667 175.2501 -36.3667],0.9,0.484,1.371,1.017,0.915,0.417,1.548,1.033,191.0,592.0
2015-04-09,Auckland,NewZealand,174.7501,-36.8667,[174.2501 -37.3667 175.2501 -36.3667],0.9,0.484,1.371,1.011,0.89,0.426,1.524,1.007,200.0,589.0
2015-04-10,Auckland,NewZealand,174.7501,-36.8667,[174.2501 -37.3667 175.2501 -36.3667],0.797,0.439,1.308,0.917,0.857,0.426,1.505,0.986,171.0,581.0
2015-04-11,Auckland,NewZealand,174.7501,-36.8667,[174.2501 -37.3667 175.2501 -36.3667],0.775,0.434,1.308,0.906,0.809,0.412,1.454,0.942,179.0,581.0
2015-04-12,Auckland,NewZealand,174.7501,-36.8667,[174.2501 -37.3667 175.2501 -36.3667],0.775,0.375,1.333,0.919,0.798,0.386,1.428,0.918,162.0,582.0
2015-04-13,Auckland,NewZealand,174.7501,-36.8667,[174.2501 -37.3667 175.2501 -36.3667],0.762,0.39,1.368,0.919,0.832,0.369,1.452,0.926,194.0,578.0
2015-04-14,Auckland,NewZealand,174.7501,-36.8667,[174.2501 -37.3667 175.2501 -36.3667],0.769,0.312,1.391,0.941,0.806,0.343,1.448,0.906,155.0,581.0
2015-04-15,Auckland,NewZealand,174.7501,-36.8667,[174.2501 -37.3667 175.2501 -36.3667],0.739,0.309,1.38,0.908,0.779,0.333,1.435,0.886,141.0,588.0
2015-04-16,Auckland,NewZealand,174.7501,-36.8667,[174.2501 -37.3667 175.2501 -36.3667],0.739,0.309,1.38,0.908,0.803,0.38,1.474,0.923,141.0,558.0
2015-04-17,Auckland,NewZealand,174.7501,-36.8667,[174.2501 -37.3667 175.2501 -36.3667],0.733,0.236,1.352,0.86,0.801,0.368,1.483,0.928,164.0,556.0
2015-04-18,Auckland,NewZealand,174.7501,-36.8667,[174.2501 -37.3667 175.2501 -36.3667],0.694,0.201,1.275,0.813,0.784,0.349,1.395,0.896,185.0,550.0
2015-04-19,Auckland,NewZealand,174.7501,-36.8667,[174.2501 -37.3667 175.2501 -36.3667],0.737,0.184,1.391,0.824,0.798,0.37,1.415,0.915,151.0,543.0
2015-04-20,Auckland,NewZealand,174.7501,-36.8667,[174.2501 -37.3667 175.2501 -36.3667],0.703,0.192,1.318,0.803,0.793,0.351,1.4,0.906,163.0,548.0
2015-04-21,Auckland,NewZealand,174.7501,-36.8667,[174.2501 -37.3667 175.2501 -36.3667],0.703,0.192,1.318,0.803,0.794,0.343,1.409,0.91,163.0,552.0
2015-04-22,Auckland,NewZealand,174.7501,-36.8667,[174.2501 -37.3667 175.2501 -36.3667],0.59,0.176,1.151,0.693,0.753,0.306,1.363,0.867,176.0,552.0
2015-04-23,Auckland,NewZealand,174.7501,-36.8667,[174.2501 -37.3667 175.2501 -36.3667],0.59,0.161,1.151,0.692,0.728,0.259,1.27,0.805,179.0,562.0
2015-04-24,Auckland,NewZealand,174.7501,-36.8667,[174.2501 -37.3667 175.2501 -36.3667],0.639,0.192,1.239,0.727,0.799,0.319,1.344,0.867,174.0,571.0
2015-04-25,Auckland,NewZealand,174.7501,-36.8667,[174.2501 -37.3667 175.2501 -36.3667],0.639,0.192,1.239,0.725,0.817,0.332,1.433,0.921,178.0,572.0
2015-04-26,Auckland,NewZealand,174.7501,-36.8667,[174.2501 -37.3667 175.2501 -36.3667],0.64,0.202,1.275,0.761,0.825,0.313,1.501,0.95,180.0,562.0
2015-04-27,Auckland,NewZealand,174.7501,-36.8667,[174.2501 -37.3667 175.2501 -36.3667],0.655,0.224,1.331,0.827,0.831,0.308,1.494,0.959,195.0,559.0
2015-04-28,Auckland,NewZealand,174.7501,-36.8667,[174.2501 -37.3667 175.2501 -36.3667],0.655,0.183,1.313,0.801,0.84,0.325,1.558,0.978,163.0,558.0
2015-04-29,Auckland,NewZealand,174.7501,-36.8667,[174.2501 -37.3667 175.2501 -36.3667],0.512,0.01,1.203,0.655,0.822,0.313,1.53,0.951,199.0,554.0
2015-04-30,Auckland,NewZealand,174.7501,-36.8667,[174.2501 -37.3667 175.2501 -36.3667],0.512,-0.034,1.203,0.654,0.768,0.248,1.463,0.904,194.0,553.0
2015-05-01,Auckland,NewZealand,174.7501,-36.8667,[174.2501 -37.3667 175.2501 -36.3667],0.512,-0.034,1.203,0.654,0.747,0.224,1.448,0.888,194.0,599.0
2015-05-02,Auckland,NewZealand,174.7501,-36.8667,[174.2501 -37.3667 175.2501 -36.3667],0.518,0.01,1.21,0.705,0.759,0.221,1.43,0.889,203.0,614.0
2015-05-03,Auckland,NewZealand,174.7501,-36.8667,[174.2501 -37.3667 175.2501 -36.3667],0.533,0.011,1.331,0.74,0.764,0.23,1.444,0.903,199.0,613.0
2015-05-04,Auckland,NewZealand,174.7501,-36.8667,[174.2501 -37.3667 175.2501 -36.3667],0.56,0.011,1.3,0.742,0.773,0.215,1.453,0.907,220.0,606.0
2015-05-05,Auckland,NewZealand,174.7501,-36.8667,[174.2501 -37.3667 175.2501 -36.3667],0.525,0.01,1.331,0.745,0.761,0.213,1.48,0.916,212.0,593.0
2015-05-06,Auckland,NewZealand,174.7501,-36.8667,[174.2501 -37.3667 175.2501 -36.3667],0.661,0.1,1.331,0.779,0.797,0.248,1.47,0.912,249.0,598.0
2015-05-07,Auckland,NewZealand,174.7501,-36.8667,[174.2501 -37.3667 175.2501 -36.3667],0.731,0.13,1.491,0.84,0.829,0.254,1.513,0.929,213.0,603.0
2015-05-08,Auckland,NewZealand,174.7501,-36.8667,[174.2501 -37.3667 175.2501 -36.3667],0.745,0.137,1.441,0.832,0.815,0.27,1.483,0.921,232.0,603.0
2015-05-09,Auckland,NewZealand,174.7501,-36.8667,[174.2501 -37.3667 175.2501 -36.3667],0.68,0.063,1.351,0.741,0.76,0.22,1.448,0.866,235.0,606.0
2015-05-10,Auckland,NewZealand,174.7501,-36.8667,[174.2501 -37.3667 175.2501 -36.3667],0.68,0.063,1.313,0.734,0.722,0.16,1.386,0.801,234.0,610.0
2015-05-11,Auckland,NewZealand,174.7501,-36.8667,[174.2501 -37.3667 175.2501 -36.3667],0.674,0.063,1.264,0.702,0.662,0.156,1.308,0.73,231.0,614.0
2015-05-12,Auckland,NewZealand,174.7501,-36.8667,[174.2501 -37.3667 175.2501 -36.3667],0.655,0.017,1.196,0.633,0.653,0.15,1.24,0.701,232.0,606.0
2015-05-13,Auckland,NewZealand,174.7501,-36.8667,[174.2501 -37.3667 175.2501 -36.3667],0.656,0.017,1.228,0.637,0.644,0.137,1.227,0.675,235.0,608.0
2015-05-14,Auckland,NewZealand,174.7501,-36.8667,[174.2501 -37.3667 175.2501 -36.3667],0.804,0.146,1.351,0.768,0.648,0.12,1.243,0.69,199.0,608.0
2015-05-15,Auckland,NewZealand,174.7501,-36.8667,[174.2501 -37.3667 175.2501 -36.3667],0.809,0.146,1.351,0.769,0.728,0.168,1.347,0.764,201.0,606.0
2015-05-16,Auckland,NewZealand,174.7501,-36.8667,[174.2501 -37.3667 175.2501 -36.3667],0.809,0.146,1.351,0.769,0.723,0.173,1.324,0.759,201.0,604.0
2015-05-17,Auckland,NewZealand,174.7501,-36.8667,[174.2501 -37.3667 175.2501 -36.3667],0.68,0.139,1.264,0.688,0.706,0.207,1.326,0.755,185.0,609.0
2015-05-18,Auckland,NewZealand,174.7501,-36.8667,[174.2501 -37.3667 175.2501 -36.3667],0.68,0.146,1.228,0.676,0.741,0.275,1.373,0.79,168.0,579.0
2015-05-19,Auckland,NewZealand,174.7501,-36.8667,[174.2501 -37.3667 175.2501 -36.3667],0.749,0.228,1.304,0.739,0.752,0.298,1.366,0.798,157.0,577.0
2015-05-20,Auckland,NewZealand,174.7501,-36.8667,[174.2501 -37.3667 175.2501 -36.3667],0.802,0.262,1.405,0.831,0.763,0.311,1.365,0.808,171.0,570.0
2015-05-21,Auckland,NewZealand,174.7501,-36.8667,[174.2501 -37.3667 175.2501 -36.3667],0.695,0.137,1.445,0.845,0.714,0.246,1.339,0.784,147.0,557.0
2015-05-22,Auckland,NewZealand,174.7501,-36.8667,[174.2501 -37.3667 175.2501 -36.3667],1.049,0.263,1.648,1.055,0.797,0.288,1.39,0.855,180.0,559.0
2015-05-23,Auckland,NewZealand,174.7501,-36.8667,[174.2501 -37.3667 175.2501 -36.3667],1.225,0.271,1.857,1.15,0.85,0.321,1.483,0.904,151.0,561.0
2015-05-24,Auckland,NewZealand,174.7501,-36.8667,[174.2501 -37.3667 175.2501 -36.3667],1.272,0.342,1.879,1.259,0.897,0.358,1.536,0.983,126.0,561.0
2015-05-25,Auckland,NewZealand,174.7501,-36.8667,[174.2501 -37.3667 175.2501 -36.3667],1.264,0.342,1.857,1.238,0.931,0.383,1.576,1.018,146.0,565.0
2015-05-26,Auckland,NewZealand,174.7501,-36.8667,[174.2501 -37.3667 175.2501 -36.3667],1.225,0.271,1.857,1.174,0.982,0.409,1.654,1.057,150.0,566.0
2015-05-27,Auckland,NewZealand,174.7501,-36.8667,[174.2501 -37.3667 175.2501 -36.3667],1.272,0.342,1.857,1.212,0.985,0.416,1.672,1.069,137.0,567.0
2015-05-28,Auckland,NewZealand,174.7501,-36.8667,[174.2501 -37.3667 175.2501 -36.3667],1.263,0.342,1.857,1.227,0.998,0.426,1.673,1.089,138.0,557.0
2015-05-29,Auckland,NewZealand,174.7501,-36.8667,[174.2501 -37.3667 175.2501 -36.3667],1.11,0.332,1.706,1.172,1.014,0.421,1.677,1.098,154.0,557.0
2015-05-30,Auckland,NewZealand,174.7501,-36.8667,[174.2501 -37.3667 175.2501 -36.3667],1.11,0.332,1.706,1.172,0.998,0.382,1.643,1.075,152.0,560.0
2015-05-31,Auckland,NewZealand,174.7501,-36.8667,[174.2501 -37.3667 175.2501 -36.3667],1.11,0.332,1.706,1.171,1.007,0.379,1.604,1.066,153.0,558.0
2015-06-01,Auckland,NewZealand,174.7501,-36.8667,[174.2501 -37.3667 175.2501 -36.3667],1.343,0.502,1.922,1.317,1.015,0.379,1.575,1.055,137.0,555.0
2015-06-02,Auckland,NewZealand,174.7501,-36.8667,[174.2501 -37.3667 175.2501 -36.3667],1.225,0.45,1.857,1.254,0.942,0.354,1.529,1.008,147.0,601.0
2015-06-03,Auckland,NewZealand,174.7501,-36.8667,[174.2501 -37.3667 175.2501 -36.3667],1.061,0.332,1.688,1.132,0.88,0.326,1.48,0.987,162.0,611.0
2015-06-04,Auckland,NewZealand,174.7501,-36.8667,[174.2501 -37.3667 175.2501 -36.3667],0.951,0.307,1.643,0.954,0.875,0.283,1.515,0.964,167.0,612.0
2015-06-05,Auckland,NewZealand,174.7501,-36.8667,[174.2501 -37.3667 175.2501 -36.3667],0.873,0.298,1.6,0.883,0.829,0.311,1.535,0.965,165.0,605.0
2015-06-06,Auckland,NewZealand,174.7501,-36.8667,[174.2501 -37.3667 175.2501 -36.3667],0.45,0.152,0.951,0.549,0.757,0.231,1.374,0.878,136.0,595.0
2015-06-07,Auckland,NewZealand,174.7501,-36.8667,[174.2501 -37.3667 175.2501 -36.3667],0.42,0.128,0.93,0.532,0.713,0.189,1.305,0.827,140.0,595.0
2015-06-08,Auckland,NewZealand,174.7501,-36.8667,[174.2501 -37.3667 175.2501 -36.3667],0.42,0.128,0.93,0.532,0.687,0.175,1.241,0.746,140.0,598.0
2015-06-09,Auckland,NewZealand,174.7501,-36.8667,[174.2501 -37.3667 175.2501 -36.3667],0.39,0.039,0.87,0.493,0.522,0.109,1.134,0.649,156.0,598.0
2015-06-10,Auckland,NewZealand,174.7501,-36.8667,[174.2501 -37.3667 175.2501 -36.3667],0.51,0.148,0.976,0.652,0.521,0.108,1.144,0.674,166.0,604.0